Satellite: NOAA-12
Catalog number: 21263
Epoch time:      10028.54392969
Element set:     430
Inclination:      098.7700 deg
RA of node:       041.6921 deg
Eccentricity:    0.0011812
Arg of perigee:   209.2031 deg
Mean anomaly:     150.8491 deg
Mean motion:   14.25613090 rev/day
Decay rate:        3.0e-07 rev/day^2
Epoch rev:           97250
Checksum:              262

Satellite: MET-3/5
Catalog number: 21655
Epoch time:      10028.54934691
Element set:     723
Inclination:      082.5549 deg
RA of node:       047.2926 deg
Eccentricity:    0.0013219
Arg of perigee:   343.8176 deg
Mean anomaly:     016.2587 deg
Mean motion:   13.17022470 rev/day
Decay rate:        5.1e-07 rev/day^2
Epoch rev:           88729
Checksum:              309

Satellite: MET-2/21
Catalog number: 22782
Epoch time:      10027.93080697
Element set:    0683
Inclination:      082.5483 deg
RA of node:       003.7128 deg
Eccentricity:    0.0023983
Arg of perigee:   076.9470 deg
Mean anomaly:     283.4369 deg
Mean motion:   13.83640975 rev/day
Decay rate:        7.9e-07 rev/day^2
Epoch rev:           82868
Checksum:              344

Satellite: OKEAN-4
Catalog number: 23317
Epoch time:      10027.75686487
Element set:    0140
Inclination:      082.5421 deg
RA of node:       124.9328 deg
Eccentricity:    0.0021816
Arg of perigee:   349.4218 deg
Mean anomaly:     010.6556 deg
Mean motion:   14.82759997 rev/day
Decay rate:        9.6e-07 rev/day^2
Epoch rev:           82564
Checksum:              321

Satellite: NOAA-14
Catalog number: 23455
Epoch time:      10028.58028075
Element set:     925
Inclination:      098.8896 deg
RA of node:       110.2455 deg
Eccentricity:    0.0008584
Arg of perigee:   272.5967 deg
Mean anomaly:     087.4221 deg
Mean motion:   14.13777486 rev/day
Decay rate:       -7.0e-08 rev/day^2
Epoch rev:           77777
Checksum:              342

Satellite: NOAA-15
Catalog number: 25338
Epoch time:      10028.54808489
Element set:     248
Inclination:      098.6067 deg
RA of node:       018.0657 deg
Eccentricity:    0.0011417
Arg of perigee:   119.1736 deg
Mean anomaly:     241.0584 deg
Mean motion:   14.24804476 rev/day
Decay rate:        8.8e-07 rev/day^2
Epoch rev:           60886
Checksum:              322

Satellite: RESURS
Catalog number: 25394
Epoch time:      10028.54004980
Element set:     417
Inclination:      098.3170 deg
RA of node:       054.1507 deg
Eccentricity:    0.0000627
Arg of perigee:   292.5205 deg
Mean anomaly:     067.5920 deg
Mean motion:   14.24192091 rev/day
Decay rate:       -4.8e-07 rev/day^2
Epoch rev:           60047
Checksum:              268

Satellite: FENGYUN1
Catalog number: 25730
Epoch time:      10027.83516200
Element set:    0961
Inclination:      098.7749 deg
RA of node:       356.5229 deg
Eccentricity:    0.0023931
Arg of perigee:   302.3262 deg
Mean anomaly:     057.5599 deg
Mean motion:   14.08166726 rev/day
Decay rate:      -2.01e-06 rev/day^2
Epoch rev:           55193
Checksum:              298

Satellite: OKEAN-0
Catalog number: 25860
Epoch time:      10027.79336215
Element set:     898
Inclination:      097.8147 deg
RA of node:       005.4032 deg
Eccentricity:    0.0001249
Arg of perigee:   106.0037 deg
Mean anomaly:     254.1309 deg
Mean motion:   14.73609854 rev/day
Decay rate:        6.0e-07 rev/day^2
Epoch rev:           56622
Checksum:              284

Satellite: NOAA-16
Catalog number: 26536
Epoch time:      10028.54392616
Element set:     725
Inclination:      099.1780 deg
RA of node:       042.6763 deg
Eccentricity:    0.0010680
Arg of perigee:   013.5607 deg
Mean anomaly:     346.5851 deg
Mean motion:   14.12543212 rev/day
Decay rate:      -2.57e-06 rev/day^2
Epoch rev:           48211
Checksum:              287

Satellite: NOAA-17
Catalog number: 27453
Epoch time:      10028.39442257
Element set:     732
Inclination:      098.4536 deg
RA of node:       084.3374 deg
Eccentricity:    0.0011724
Arg of perigee:   181.7136 deg
Mean anomaly:     178.4013 deg
Mean motion:   14.24126713 rev/day
Decay rate:       2.34e-06 rev/day^2
Epoch rev:           39480
Checksum:              292

Satellite: NOAA-18
Catalog number: 28654
Epoch time:      10028.42685066
Element set:     214
Inclination:      098.9344 deg
RA of node:       335.2073 deg
Eccentricity:    0.0015239
Arg of perigee:   087.3556 deg
Mean anomaly:     272.9349 deg
Mean motion:   14.11320977 rev/day
Decay rate:      -1.57e-06 rev/day^2
Epoch rev:           24172
Checksum:              314

Satellite: NOAA-19
Catalog number: 33591
Epoch time:      10028.45536404
Element set:     421
Inclination:      098.7743 deg
RA of node:       333.6518 deg
Eccentricity:    0.0013800
Arg of perigee:   328.4631 deg
Mean anomaly:     031.5693 deg
Mean motion:   14.11022003 rev/day
Decay rate:       2.02e-06 rev/day^2
Epoch rev:            5020
Checksum:              248

/EX
SB KEPS @ AMSAT  $ORB10028.M
Orbital Elements  10028.MISC

HR AMSAT ORBITAL ELEMENTS FOR MANNED AND MISCELLANEOUS SATELLITES
FROM WA5QGD FORT WORTH,TX January 28, 2010
Send Subscribe/unsubscribe to KEPS at 
http://www.amsat.org/mailman/listinfo/keps
BID: ORB10028.M
TO ALL RADIO AMATEURS BT

